Ogden, UT

7:53 PM MDT on August 17, 2017 (GMT -0600)
Ogden-Hinckley

Weather History for KOGD - December, 2013

Change the Weather History Date:

Sunday, December 22, 2013

  Actual Average Record
Temperature  
Mean Temperature 30 °F -  
Max Temperature 33 °F 34 °F 56 °F (1955)
Min Temperature 28 °F 19 °F -10 °F (1990)
Degree Days  
Heating Degree Days 34    
Moisture  
Dew Point 27 °F    
Average Humidity 85    
Maximum Humidity 89    
Minimum Humidity 82    
Precipitation  
Precipitation 0.01 in - - ()
Sea Level Pressure  
Sea Level Pressure 30.23 in    
Wind  
Wind Speed 4 mph (SSE)    
Max Wind Speed 10 mph    
Max Gust Speed -    
Visibility 6 miles    
Events Snow    
Averages and records for this station are not official NWS values.
T = Trace of Precipitation, MM = Missing Value Source: NWS Daily Summary

Daily Weather History Graph

Daily Weather History Graph

Search for Another Location

Airport or City:

Trip Planner

Search our weather history database for the weather conditions in past years. The results will help you decide how hot, cold, wet, or windy it might be!

Date:

Astronomy

Dec. 22, 2013 Rise Set
Actual Time 7:50 AM MST 5:02 PM MST
Civil Twilight 7:19 AM MST 5:34 PM MST
Nautical Twilight 6:44 AM MST 6:09 PM MST
Astronomical Twilight 6:11 AM MST 6:42 PM MST
Moon 10:21 PM MST (12/22) 10:46 AM MST (12/22)
Length of Visible Light 10h 14m
Length of Day
9h 12m
Waning Gibbous, 76% of the Moon is Illuminated
Dec 22
Waning Gibbous
Dec 25
Last Quarter
Jan 1
New
Jan 7
First Quarter
Jan 15
Full

Hourly Weather History & Observations

Time (MST) Temp. Windchill Dew Point Humidity Pressure Visibility Wind Dir Wind Speed Gust Speed Precip Events Conditions
12:53 AM 28.9 °F 25.2 °F 26.1 °F 89% 30.15 in 4.0 mi South 3.5 mph - N/A   Overcast
1:53 AM 28.9 °F 21.9 °F 25.0 °F 85% 30.14 in 7.0 mi SSW 6.9 mph - N/A   Overcast
2:53 AM 28.9 °F 21.9 °F 25.0 °F 85% 30.15 in 6.0 mi South 6.9 mph - N/A   Overcast
3:53 AM 28.0 °F - 24.1 °F 85% 30.17 in 8.0 mi Calm Calm - N/A   Overcast
4:53 AM 28.0 °F 20.8 °F 24.1 °F 85% 30.16 in 6.0 mi SSE 6.9 mph - N/A   Overcast
5:53 AM 28.9 °F 25.2 °F 25.0 °F 85% 30.17 in 8.0 mi South 3.5 mph - N/A   Overcast
6:53 AM 28.0 °F - 24.1 °F 85% 30.19 in 6.0 mi Calm Calm - 0.00 in Snow Light Snow
7:28 AM 28.9 °F - 25.0 °F 85% 30.15 in 1.8 mi Calm Calm - 0.01 in Snow Light Snow
7:36 AM 28.9 °F 23.9 °F 25.0 °F 85% 30.15 in 1.2 mi SE 4.6 mph - 0.01 in Snow Light Snow
7:46 AM 28.9 °F 21.9 °F 26.1 °F 89% 30.15 in 2.0 mi SSE 6.9 mph - 0.01 in Snow Light Snow
7:53 AM 28.9 °F 21.9 °F 26.1 °F 89% 30.20 in 2.5 mi SSE 6.9 mph - 0.01 in Snow Light Snow
8:01 AM 28.9 °F 21.1 °F 25.0 °F 85% 30.15 in 3.0 mi SSE 8.1 mph - 0.00 in Snow Light Snow
8:53 AM 30.0 °F 22.4 °F 26.1 °F 85% 30.21 in 5.0 mi SSE 8.1 mph - 0.00 in   Overcast
9:53 AM 30.0 °F - 27.0 °F 88% 30.24 in 7.0 mi Calm Calm - 0.00 in   Overcast
10:53 AM 30.9 °F 27.5 °F 28.0 °F 89% 30.26 in 8.0 mi SSW 3.5 mph - N/A   Overcast
11:53 AM 32.0 °F - 28.0 °F 85% 30.26 in 6.0 mi Calm Calm - N/A   Overcast
12:10 PM 32.0 °F 27.5 °F 28.0 °F 85% 30.21 in 2.0 mi SSE 4.6 mph - 0.00 in Snow Light Snow
12:27 PM 32.0 °F 26.4 °F 27.0 °F 82% 30.21 in 4.0 mi South 5.8 mph - 0.00 in Snow Light Snow
12:53 PM 32.0 °F 24.8 °F 27.0 °F 82% 30.24 in 7.0 mi SSE 8.1 mph - 0.00 in   Overcast
1:14 PM 32.0 °F 23.6 °F 27.0 °F 82% 30.20 in 7.0 mi South 10.4 mph - 0.00 in   Overcast
1:41 PM 32.0 °F 23.6 °F 27.0 °F 82% 30.20 in 7.0 mi SSE 10.4 mph - 0.00 in   Overcast
1:53 PM 32.0 °F 24.2 °F 27.0 °F 82% 30.25 in 7.0 mi South 9.2 mph - 0.00 in   Overcast
2:53 PM 32.0 °F 27.5 °F 28.0 °F 85% 30.25 in 7.0 mi SSE 4.6 mph - N/A   Overcast
3:53 PM 33.1 °F 28.7 °F 28.0 °F 82% 30.27 in 10.0 mi SE 4.6 mph - N/A   Overcast
4:53 PM 32.0 °F - 28.9 °F 88% 30.28 in 6.0 mi Calm Calm - N/A   Overcast
5:53 PM 32.0 °F - 28.9 °F 88% 30.29 in 6.0 mi Calm Calm - N/A   Overcast
6:53 PM 32.0 °F - 28.9 °F 88% 30.31 in 8.0 mi Calm Calm - N/A   Overcast
7:53 PM 33.1 °F 28.7 °F 28.0 °F 82% 30.33 in 9.0 mi South 4.6 mph - N/A   Overcast
8:53 PM 32.0 °F 27.5 °F 28.9 °F 88% 30.34 in 9.0 mi SSE 4.6 mph - N/A   Overcast
9:53 PM 32.0 °F 26.4 °F 28.0 °F 85% 30.36 in 8.0 mi South 5.8 mph - N/A   Overcast
10:53 PM 32.0 °F - 28.9 °F 88% 30.38 in 7.0 mi Calm Calm - N/A   Overcast
11:53 PM 33.1 °F 27.7 °F 28.9 °F 85% 30.38 in 8.0 mi South 5.8 mph - 0.00 in   Overcast